Cloud_Cover
100 100 100 99 100 100 100 100 100 99 100 100 100 100 100 100 100 100 100 100 100 72 91 95 100 100 100 100 59 98 66 30 5 5 5 60 23 5 35 5 7 5 5 5 4
100 100 100 100 100 100 100 100 100 100 100 100 100 100 100 100 100 100 100 100 100 100 100 94 99 100 100 100 97 87 27 68 6 5 5 12 40 5 62 49 26 44 5 5 5
100 100 100 100 100 97 100 100 100 100 100 100 100 100 100 100 100 100 100 100 100 100 100 100 100 100 100 100 100 100 100 46 100 83 5 5 81 93 60 90 14 6 5 89 17
100 100 100 100 100 100 98 100 100 100 100 100 100 100 100 62 92 100 100 100 100 100 100 100 100 100 100 100 100 100 100 100 100 100 17 5 68 100 78 69 78 5 60 63 18
94 100 100 100 100 100 90 100 100 100 100 100 100 100 100 95 25 100 100 100 100 100 100 100 100 100 99 99 100 100 100 100 100 100 100 7 20 100 99 13 55 5 6 73 10
8 100 100 100 100 100 100 100 100 100 100 100 100 100 84 44 86 82 100 100 100 100 82 100 97 100 100 99 87 100 100 100 100 100 100 22 6 99 99 80 7 5 55 72 8
0 100 100 100 100 100 100 100 100 100 100 100 100 100 100 100 33 80 100 100 100 100 100 98 100 100 100 100 100 100 100 100 100 100 100 86 83 86 70 100 98 31 8 64 28
0 4 55 100 100 100 100 100 100 100 100 100 100 100 100 100 100 92 100 100 100 100 100 100 100 67 94 100 100 100 100 100 100 100 100 100 100 100 5 100 100 50 17 93 30
0 0 6 80 100 100 100 100 100 100 100 93 86 100 100 100 100 100 100 100 100 100 100 100 100 80 47 27 88 100 94 100 100 100 100 100 100 100 62 88 100 100 40 49 96
3 0 5 22 100 100 100 100 100 100 100 100 95 74 11 100 100 100 100 100 99 100 100 85 58 58 15 87 74 88 100 100 100 100 100 100 100 100 100 93 99 100 100 57 77
4 0 0 13 100 100 100 100 100 100 100 78 88 100 100 100 100 100 100 100 100 100 100 51 35 6 100 100 100 99 29 47 89 100 100 100 100 100 100 100 100 100 100 69 7
5 0 0 4 71 81 100 100 100 100 100 100 100 83 98 100 100 100 100 100 100 100 100 100 96 100 100 100 99 35 61 35 100 100 100 100 100 100 100 100 100 100 100 100 72
5 0 0 0 22 100 100 100 100 100 100 100 100 100 92 100 100 100 100 100 100 100 100 100 98 100 100 100 97 100 68 89 100 99 83 100 98 100 100 100 100 100 100 100 100
5 1 0 4 45 100 100 98 100 100 100 100 100 100 100 100 100 100 100 100 100 100 100 100 66 100 100 99 87 48 98 100 100 89 42 28 72 100 100 100 100 100 100 100 100
56 5 5 30 17 100 100 100 100 100 100 100 100 100 100 100 100 100 100 100 100 100 100 100 100 100 93 100 100 79 95 100 100 30 5 5 6 99 100 100 100 100 100 100 100
18 6 5 59 88 100 100 100 100 100 100 100 100 100 100 100 100 100 100 100 100 100 100 100 100 100 100 100 100 100 100 100 99 93 41 64 6 96 100 100 100 100 100 100 100
5 5 77 31 100 98 100 96 100 100 96 100 100 100 100 100 100 100 100 100 100 100 96 100 100 100 100 100 99 63 100 95 91 100 46 100 34 90 93 100 100 100 100 100 100
88 74 86 89 17 86 6 100 100 100 100 98 100 100 100 100 100 100 100 100 100 100 100 87 93 100 100 100 100 100 100 100 99 51 5 46 5 73 34 100 100 100 100 100 100
74 100 100 97 43 46 85 100 100 83 100 100 100 100 100 100 100 100 100 100 100 100 100 100 100 100 100 100 100 100 93 100 99 7 5 1 23 100 99 94 100 100 100 100 100
100 100 100 100 43 86 100 100 100 100 100 100 100 97 100 100 100 100 100 100 100 100 100 96 96 100 100 100 100 94 81 71 80 51 44 1 6 100 100 100 100 100 100 100 100
100 100 100 85 74 100 98 100 100 100 100 100 100 100 100 100 100 100 100 90 100 100 100 100 100 100 100 100 100 100 100 100 100 78 9 5 81 100 100 100 100 100 100 100 100
100 100 100 100 55 85 96 99 100 100 100 100 100 100 100 100 100 100 33 98 95 100 100 100 100 100 96 100 100 100 100 100 100 100 100 17 26 100 100 100 55 100 100 100 100
100 100 100 100 42 98 99 100 100 100 100 100 100 100 100 100 100 100 63 53 97 100 100 100 100 100 100 95 24 78 87 100 100 100 100 76 78 100 39 100 32 7 36 94 100
100 100 100 100 62 72 90 18 100 100 100 100 100 100 100 100 100 100 100 100 100 98 100 100 100 64 23 32 99 74 100 100 100 100 92 10 93 100 100 100 100 45 59 6 53
26 97 84 94 100 14 5 5 25 9 18 100 100 100 100 100 100 100 100 100 100 100 100 100 100 24 41 100 100 100 100 100 100 100 83 69 13 100 100 100 100 100 100 80 90
49 44 69 94 14 17 34 5 5 92 100 100 100 100 100 100 100 100 100 100 100 100 100 100 98 96 5 58 100 100 100 100 82 59 20 5 5 100 100 52 22 85 99 100 100
100 99 16 42 75 6 5 4 0 0 0 79 73 100 100 100 100 100 100 100 100 100 100 100 100 100 69 63 100 100 5 96 100 100 97 11 89 100 98 100 100 56 10 5 60